Location: Utrecht
(52.0917°N, 5.1178°E)
Time: 00:27:45
(UTC+02:00)

Amateur Radio Satellites - All Passes

Search period start: 24 June 2017 23:57
Search period end: 25 June 2017 23:57
Location: Utrecht, 52.0917°N, 5.1178°E

Satellite Date Start Highest point End Downlink Frequencies (MHz)
Time Altitude Azimuth
AIST 2D 25 Jun 00:11:26 00:13:53 18° 91° (E) 00:16:18 435.315
UKube-1 25 Jun 00:12:29 00:13:26 11° 50° (NE) 00:14:24 .
TIGRISAT 25 Jun 00:26:35 00:31:14 58° 289° (WNW) 00:35:45 435.000
YUBILEINY 25 Jun 00:27:13 00:35:49 54° 290° (WNW) 00:44:30 435.215
BEESAT 3 25 Jun 00:28:09 00:31:46 30° 327° (NNW) 00:35:23 437.485
M-CUBED/EXP-1 PRIME 25 Jun 00:29:38 00:32:56 35° 298° (WNW) 00:36:25 437.505
POLYITAN 1 25 Jun 00:34:56 00:37:56 18° 90° (E) 00:40:54 437.675
PRISM 25 Jun 00:40:12 00:43:59 37° 294° (WNW) 00:47:47 437.425
NO-84 25 Jun 00:41:09 00:45:17 73° 153° (SSE) 00:49:38 435.350 FM
50 SAT 25 Jun 00:44:20 00:47:11 25° 65° (ENE) 00:50:02 437.505
QB50P2 25 Jun 00:45:20 00:48:51 24° 93° (E) 00:52:21 145.880/145.840
FO-29 25 Jun 00:45:53 00:53:16 52° 296° (WNW) 01:00:48 435.910
O/OREOS (USA 219) 25 Jun 00:47:44 00:51:32 25° 314° (NW) 00:55:19 437.305
LO-87 25 Jun 00:48:05 00:50:45 20° 268° (W) 00:53:27 145.935 - 145.965
SO-50 25 Jun 00:55:06 00:58:52 26° 242° (WSW) 01:02:37 436.795
ESTCUBE 1 25 Jun 00:55:46 00:59:53 34° 264° (W) 01:04:01 437.505/2401.250
VELOX 1 25 Jun 01:01:40 01:06:03 85° 72° (ENE) 01:10:28 145.980
BUGSAT 1 25 Jun 01:07:00 01:07:47 10° 85° (E) 01:08:33 437.445
UNISAT 6 25 Jun 01:08:54 01:12:47 26° 299° (WNW) 01:16:36 437.425
EO-79 25 Jun 01:09:58 01:13:58 37° 97° (E) 01:17:57 145.935-145.965
BEESAT 2 25 Jun 01:24:45 01:28:12 26° 330° (NNW) 01:31:42 435.950
DX 1 25 Jun 01:24:59 01:29:13 56° 70° (ENE) 01:33:28 434.975-435.025
DUCHIFAT 1 25 Jun 01:25:17 01:29:23 43° 99° (E) 01:33:25 145.980
AO-85 25 Jun 01:27:21 01:29:45 15° 346° (NNW) 01:32:11 145.980
SPROUT 25 Jun 01:31:32 01:35:40 48° 261° (W) 01:39:52 437.525
NANOSAT C BR1 25 Jun 01:33:08 01:37:22 56° 101° (E) 01:41:33 145.865
Oscar 19 25 Jun 01:43:48 01:45:38 12° 84° (E) 01:47:28 437.125/150
AIST 2D 25 Jun 01:43:57 01:47:19 42° 290° (WNW) 01:50:38 435.315
UKube-1 25 Jun 01:44:23 01:48:36 60° 71° (ENE) 01:52:52 .
RS-15 25 Jun 01:45:24 01:57:22 51° 342° (NNW) 02:09:15 29.354- 29.394
TIGRISAT 25 Jun 02:05:27 02:06:57 11° 310° (NW) 02:08:27 435.000
BEESAT 3 25 Jun 02:08:12 02:10:31 15° 350° (N) 02:12:49 437.485
POLYITAN 1 25 Jun 02:09:52 02:14:07 61° 289° (WNW) 02:18:20 437.675
50 SAT 25 Jun 02:17:00 02:19:56 27° 264° (W) 02:22:53 437.505
NO-84 25 Jun 02:18:49 02:23:03 59° 354° (N) 02:27:25 435.350 FM
QB50P2 25 Jun 02:20:44 02:24:51 45° 292° (WNW) 02:28:56 145.880/145.840
Gurwin Techsat 1B 25 Jun 02:27:10 02:30:54 19° 88° (E) 02:34:37 435.225
MOZHAYETS 4 25 Jun 02:28:14 02:31:07 16° 55° (NE) 02:33:59
YUBILEINY 25 Jun 02:29:48 02:35:09 17° 317° (NW) 02:40:33 435.215
FO-29 25 Jun 02:32:10 02:36:45 18° 318° (NW) 02:41:27 435.910
ITUPSAT 1 25 Jun 02:36:03 02:40:06 28° 60° (ENE) 02:44:11 437.325
BUGSAT 1 25 Jun 02:39:35 02:43:53 78° 104° (ESE) 02:48:08 437.445
VELOX 1 25 Jun 02:40:55 02:43:08 14° 273° (W) 02:45:20 145.980
EO-79 25 Jun 02:45:54 02:49:39 30° 296° (WNW) 02:53:23 145.935-145.965
BEESAT 25 Jun 02:46:29 02:50:46 33° 63° (ENE) 02:55:03 436.000
DUCHIFAT 1 25 Jun 03:01:18 03:04:53 26° 298° (WNW) 03:08:25 145.980
DX 1 25 Jun 03:02:32 03:05:45 20° 269° (W) 03:08:59 434.975-435.025
BEESAT 2 25 Jun 03:05:00 03:07:15 14° 354° (N) 03:09:29 435.950
AO-85 25 Jun 03:09:21 03:11:40 15° 12° (NNE) 03:14:02 145.980
NANOSAT C BR1 25 Jun 03:09:30 03:12:44 21° 300° (WNW) 03:15:57 145.865
Oscar 19 25 Jun 03:20:47 03:25:55 71° 103° (ESE) 03:31:02 437.125/150
UKube-1 25 Jun 03:22:00 03:25:01 18° 269° (W) 03:28:04 .
AO-7 25 Jun 03:39:30 03:44:53 18° 84° (E) 03:50:12 .
BEESAT 3 25 Jun 03:47:03 03:49:36 16° 14° (NNE) 03:52:08 437.485
POLYITAN 1 25 Jun 03:48:06 03:49:03 11° 309° (NW) 03:49:59 437.675
NO-84 25 Jun 03:56:40 04:01:02 70° 15° (NNE) 04:05:24 435.350 FM
ITAMSAT 1 25 Jun 03:57:02 04:00:21 17° 87° (E) 04:03:38 435.822/435.867
RS-15 25 Jun 04:01:02 04:12:57 49° 15° (NNE) 04:24:31 29.354- 29.394
MOZHAYETS 4 25 Jun 04:03:00 04:07:39 89° 250° (WSW) 04:12:20
Gurwin Techsat 1B 25 Jun 04:06:09 04:11:30 80° 288° (WNW) 04:16:49 435.225
KKS-1 25 Jun 04:08:37 04:11:56 21° 58° (ENE) 04:15:16 437.445
ITUPSAT 1 25 Jun 04:13:02 04:17:43 51° 260° (W) 04:22:26 437.325
BUGSAT 1 25 Jun 04:16:01 04:18:43 17° 303° (WNW) 04:21:24 437.445
BEESAT 25 Jun 04:23:57 04:28:28 40° 262° (W) 04:33:01 436.000
STARS 25 Jun 04:41:14 04:44:26 20° 58° (ENE) 04:47:39 437.465
CUBESAT XI-V 25 Jun 04:41:31 04:45:59 49° 69° (ENE) 04:50:27 437.345
BEESAT 2 25 Jun 04:43:42 04:46:29 17° 18° (NNE) 04:49:16 435.950
AO-85 25 Jun 04:49:27 04:53:09 34° 35° (NE) 04:56:59 145.980
Oscar 19 25 Jun 05:00:51 05:04:48 23° 303° (WNW) 05:08:44 437.125/150
BEESAT 3 25 Jun 05:24:23 05:28:13 38° 37° (NE) 05:31:59 437.485
AO-7 25 Jun 05:30:50 05:39:15 70° 107° (ESE) 05:47:36 .
NO-84 25 Jun 05:34:22 05:38:36 47° 215° (SW) 05:42:45 435.350 FM
ITAMSAT 1 25 Jun 05:35:15 05:40:32 88° 287° (WNW) 05:45:47 435.822/435.867
MOZHAYETS 4 25 Jun 05:43:09 05:45:30 14° 274° (W) 05:47:51
KKS-1 25 Jun 05:43:44 05:48:07 62° 258° (WSW) 05:52:34 437.445
Gurwin Techsat 1B 25 Jun 05:47:17 05:50:41 17° 308° (NW) 05:54:05 435.225
O/OREOS (USA 219) 25 Jun 05:54:26 05:56:19 12° 32° (NNE) 05:58:13 437.305
RS-15 25 Jun 06:14:52 06:27:16 83° 45° (NE) 06:39:05 29.354- 29.394
STARS 25 Jun 06:16:00 06:20:22 65° 258° (WSW) 06:24:46 437.465
CUBESAT XI-V 25 Jun 06:19:47 06:23:37 25° 268° (W) 06:27:26 437.345
BEESAT 2 25 Jun 06:21:11 06:25:10 47° 40° (NE) 06:29:06 435.950
AO-85 25 Jun 06:29:46 06:33:39 46° 235° (SW) 06:37:45 145.980
STRAND 1 25 Jun 06:32:13 06:35:58 21° 55° (NE) 06:39:45 437.568
CUTE-I 25 Jun 06:33:51 06:36:17 13° 84° (E) 06:38:42 437.470
XW-2C 25 Jun 06:36:39 06:37:29 11° 86° (E) 06:38:18 145.795 - 145.815
YUBILEINY 25 Jun 06:39:02 06:40:25 10° 28° (NNE) 06:41:48 435.215
KAITUO 1B 25 Jun 06:52:23 06:53:56 12° 87° (E) 06:55:28 145.475/437.950
BEESAT 3 25 Jun 07:02:04 07:05:49 38° 237° (WSW) 07:09:31 437.485
DOVE 4 25 Jun 07:13:16 07:18:00 56° 101° (E) 07:22:59 437.250
NO-84 25 Jun 07:13:50 07:15:20 12° 234° (SW) 07:16:48 435.350 FM
ITAMSAT 1 25 Jun 07:15:45 07:19:20 19° 307° (NW) 07:22:54 435.822/435.867
AO-7 25 Jun 07:24:03 07:31:36 39° 309° (NW) 07:39:08 .
NUDT-PHONESAT 25 Jun 07:28:05 07:31:18 27° 95° (E) 07:34:30 437.300
O/OREOS (USA 219) 25 Jun 07:32:32 07:36:54 47° 54° (NE) 07:41:13 437.305
FO-29 25 Jun 07:39:36 07:41:57 12° 34° (NE) 07:44:23 435.910
XW-2F 25 Jun 07:40:42 07:44:21 45° 99° (E) 07:47:57 145.980 - 146.000
XW-2D 25 Jun 07:44:02 07:47:47 53° 100° (E) 07:51:28 145.860 - 145.880
LilacSat-2 25 Jun 07:51:15 07:55:05 65° 103° (ESE) 07:58:49 437.200
XW-2B 25 Jun 07:53:00 07:56:47 64° 101° (E) 08:00:31 145.730 - 145.750
BEESAT 2 25 Jun 07:59:13 08:02:46 29° 240° (WSW) 08:06:18 435.950
XW-2C 25 Jun 08:08:27 08:12:16 86° 286° (WNW) 08:16:02 145.795 - 145.815
STRAND 1 25 Jun 08:09:27 08:14:36 80° 255° (WSW) 08:19:48 437.568
SEEDS 25 Jun 08:09:51 08:11:53 13° 87° (E) 08:13:54 437.485
CUTE-I 25 Jun 08:11:54 08:17:18 73° 104° (ESE) 08:22:41 437.470
M-CUBED/EXP-1 PRIME 25 Jun 08:15:24 08:15:57 10° 49° (NE) 08:16:31 437.505
CUTE 1.7 + AOD 2 25 Jun 08:24:37 08:28:12 26° 93° (E) 08:31:46 437.475
KAITUO 1B 25 Jun 08:24:42 08:28:26 72° 286° (WNW) 08:32:07 145.475/437.950
HO-68 25 Jun 08:25:00 08:31:30 35° 94° (E) 08:37:57 435.675
CUBEBUG 2 25 Jun 08:27:45 08:31:07 19° 88° (E) 08:34:26 437.445
RS-15 25 Jun 08:28:00 08:38:43 39° 252° (WSW) 08:49:00 29.354- 29.394
XW-2A 25 Jun 08:30:59 08:33:34 20° 93° (E) 08:36:08 145.665 - 145.685
YUBILEINY 25 Jun 08:33:19 08:41:05 32° 59° (ENE) 08:48:46 435.215
DOVE 4 25 Jun 08:51:31 08:55:25 26° 298° (WNW) 08:59:29 437.250
ZACube-1 25 Jun 09:00:32 09:02:52 14° 86° (E) 09:05:10 437.345
UNISAT 6 25 Jun 09:01:20 09:04:05 16° 54° (NE) 09:06:51 437.425
NUDT-PHONESAT 25 Jun 09:01:55 09:05:13 30° 294° (WNW) 09:08:29 437.300
AAUSAT CUBESAT 2 25 Jun 09:02:20 09:05:31 21° 92° (E) 09:08:41 437.432
UWE-3 25 Jun 09:02:52 09:06:38 24° 91° (E) 09:10:19 435.000/436.395/437.385
O/OREOS (USA 219) 25 Jun 09:12:20 09:16:05 26° 255° (WSW) 09:19:49 437.305
XW-2F 25 Jun 09:15:25 09:18:14 20° 298° (WNW) 09:21:01 145.980 - 146.000
AO-7 25 Jun 09:17:40 09:22:11 16° 334° (NNW) 09:26:42 .
XW-2D 25 Jun 09:19:01 09:21:38 18° 299° (WNW) 09:24:14 145.860 - 145.880
FO-29 25 Jun 09:19:13 09:24:58 37° 58° (ENE) 09:31:23 435.910
LilacSat-2 25 Jun 09:26:35 09:28:55 16° 301° (WNW) 09:31:12 437.200
XW-2B 25 Jun 09:28:14 09:30:33 16° 301° (WNW) 09:32:50 145.730 - 145.750
SEEDS 25 Jun 09:43:57 09:48:08 80° 286° (WNW) 09:52:18 437.485
XW-2C 25 Jun 09:44:30 09:45:50 12° 304° (NW) 09:47:09 145.795 - 145.815
M-CUBED/EXP-1 PRIME 25 Jun 09:46:37 09:49:53 87° 72° (ENE) 09:53:11 437.505
STRAND 1 25 Jun 09:52:02 09:54:38 14° 275° (W) 09:57:14 437.568
CUTE-I 25 Jun 09:52:41 09:56:53 24° 304° (NW) 10:01:05 437.470
TIGRISAT 25 Jun 09:54:03 09:58:16 36° 65° (ENE) 10:02:34 435.000
PRISM 25 Jun 09:59:21 10:03:10 40° 67° (ENE) 10:07:00 437.425
Tancredo 1 25 Jun 09:59:56 10:02:23 22° 148° (SSE) 10:04:50 437.200
CUTE 1.7 + AOD 2 25 Jun 10:00:13 10:04:09 39° 293° (WNW) 10:08:04 437.475
AO-73 25 Jun 10:00:44 10:05:02 42° 97° (E) 10:09:13 145.935
XW-2A 25 Jun 10:03:16 10:06:26 35° 291° (WNW) 10:09:34 145.665 - 145.685
CUBEBUG 2 25 Jun 10:03:28 10:08:13 69° 288° (WNW) 10:12:52 437.445
ISS 25 Jun 10:10:53 10:13:13 18° 144° (SE) 10:15:33 437.550
HO-68 25 Jun 10:12:34 10:19:39 62° 296° (WNW) 10:26:41 435.675
Oscar 11 25 Jun 10:28:45 10:33:04 61° 101° (E) 10:37:19 .
YUBILEINY 25 Jun 10:30:01 10:38:53 79° 264° (W) 10:47:40 435.215
ZACube-1 25 Jun 10:35:16 10:39:49 85° 283° (WNW) 10:44:14 437.345
DELFI C3 25 Jun 10:35:24 10:38:29 21° 92° (E) 10:41:33 145.870
UNISAT 6 25 Jun 10:35:27 10:40:05 85° 75° (ENE) 10:44:50 437.425
AAUSAT CUBESAT 2 25 Jun 10:37:15 10:41:13 47° 290° (WNW) 10:45:10 437.432
UWE-3 25 Jun 10:38:51 10:43:22 51° 291° (WNW) 10:47:46 435.000/436.395/437.385
DUCHIFAT 1 25 Jun 10:50:08 10:51:19 11° 52° (NE) 10:52:30 145.980
AIST 2D 25 Jun 10:51:19 10:53:42 17° 62° (ENE) 10:56:06 435.315
NANOSAT C BR1 25 Jun 10:57:09 10:59:20 14° 55° (NE) 11:01:30 145.865
FO-29 25 Jun 11:03:39 11:09:44 57° 261° (W) 11:16:43 435.910
AO-7 25 Jun 11:09:56 11:11:33 11° 2° (N) 11:13:09 .
SEEDS 25 Jun 11:21:21 11:23:09 13° 305° (NW) 11:24:55 437.485
TIGRISAT 25 Jun 11:30:43 11:34:57 35° 265° (W) 11:39:17 435.000
POLYITAN 1 25 Jun 11:32:24 11:36:04 28° 63° (ENE) 11:39:45 437.675
Tancredo 1 25 Jun 11:34:37 11:37:38 67° 167° (SSE) 11:40:41 437.200
PRISM 25 Jun 11:35:17 11:38:36 24° 266° (W) 11:41:57 437.425
AO-73 25 Jun 11:37:16 11:41:07 28° 297° (WNW) 11:44:52 145.935
CUBEBUG 2 25 Jun 11:41:45 11:43:59 13° 308° (NW) 11:46:12 437.445
QB50P2 25 Jun 11:42:52 11:46:48 37° 66° (ENE) 11:50:45 145.880/145.840
EO-88 25 Jun 11:43:34 11:47:14 75° 103° (ESE) 11:50:53 145.990 - 145.960
ISS 25 Jun 11:46:00 11:49:15 58° 163° (SSE) 11:52:30 437.550
BUGSAT 1 25 Jun 12:00:52 12:03:33 17° 57° (ENE) 12:06:16 437.445
HO-68 25 Jun 12:01:22 12:06:06 19° 318° (NW) 12:10:50 435.675
Oscar 11 25 Jun 12:05:40 12:08:50 20° 300° (WNW) 12:11:58 .
EO-79 25 Jun 12:07:17 12:11:28 56° 70° (ENE) 12:15:41 145.935-145.965
LO-87 25 Jun 12:08:37 12:11:34 23° 93° (E) 12:14:31 145.935 - 145.965
DELFI C3 25 Jun 12:09:42 12:13:27 43° 291° (WNW) 12:17:12 145.870
ZACube-1 25 Jun 12:12:53 12:15:24 15° 305° (NW) 12:17:54 437.345
UNISAT 6 25 Jun 12:14:47 12:17:27 15° 274° (W) 12:20:08 437.425
Gurwin Techsat 1B 25 Jun 12:17:52 12:19:41 12° 45° (NE) 12:21:30 435.225
DUCHIFAT 1 25 Jun 12:21:58 12:26:10 65° 72° (ENE) 12:30:25 145.980
AIST 2D 25 Jun 12:23:08 12:26:36 49° 260° (W) 12:30:05 435.315
PCSat 25 Jun 12:27:00 12:30:40 19° 107° (ESE) 12:34:21 145.827
YUBILEINY 25 Jun 12:28:12 12:34:15 21° 287° (WNW) 12:40:18 435.215
NANOSAT C BR1 25 Jun 12:30:07 12:34:23 85° 76° (ENE) 12:38:41 145.865
ESTCUBE 1 25 Jun 12:42:02 12:46:07 33° 96° (E) 12:50:10 437.505/2401.250
VELOX 1 25 Jun 12:48:10 12:49:24 11° 85° (E) 12:50:37 145.980
FO-29 25 Jun 12:54:31 12:56:40 12° 285° (WNW) 12:58:53 435.910
AO-7 25 Jun 12:56:02 13:01:00 18° 29° (NNE) 13:06:00 .
Oscar 19 25 Jun 13:04:52 13:09:24 32° 61° (ENE) 13:13:55 437.125/150
POLYITAN 1 25 Jun 13:07:42 13:11:44 40° 263° (W) 13:15:48 437.675
Tancredo 1 25 Jun 13:10:08 13:13:11 79° 187° (S) 13:16:15 437.200
SPROUT 25 Jun 13:11:53 13:15:05 20° 91° (E) 13:18:17 437.525
EO-88 25 Jun 13:18:36 13:20:25 13° 302° (WNW) 13:22:13 145.990 - 145.960
QB50P2 25 Jun 13:18:54 13:22:39 29° 265° (W) 13:26:26 145.880/145.840
ISS 25 Jun 13:22:22 13:25:40 84° 185° (S) 13:28:59 437.550
BUGSAT 1 25 Jun 13:34:16 13:38:25 74° 257° (WSW) 13:42:38 437.445
50 SAT 25 Jun 13:34:43 13:36:08 12° 89° (E) 13:37:32 437.505
LO-87 25 Jun 13:41:45 13:45:06 35° 292° (WNW) 13:48:26 145.935 - 145.965
EO-79 25 Jun 13:44:29 13:47:34 19° 269° (W) 13:50:42 145.935-145.965
ITAMSAT 1 25 Jun 13:45:47 13:46:35 10° 44° (NE) 13:47:22 435.822/435.867
Gurwin Techsat 1B 25 Jun 13:53:22 13:58:29 50° 66° (ENE) 14:03:38 435.225
DUCHIFAT 1 25 Jun 13:59:29 14:02:16 17° 271° (W) 14:05:05 145.980
PCSat 25 Jun 14:07:55 14:13:21 89° 127° (SE) 14:18:51 145.827
NANOSAT C BR1 25 Jun 14:08:41 14:10:42 13° 273° (W) 14:12:44 145.865
ESTCUBE 1 25 Jun 14:18:51 14:22:56 35° 295° (WNW) 14:27:01 437.505/2401.250
VELOX 1 25 Jun 14:22:10 14:26:37 78° 106° (ESE) 14:31:03 145.980
DX 1 25 Jun 14:43:23 14:47:36 46° 100° (E) 14:51:49 434.975-435.025
Oscar 19 25 Jun 14:43:37 14:48:35 47° 261° (W) 14:53:34 437.125/150
AO-7 25 Jun 14:44:03 14:51:48 45° 54° (NE) 14:59:35 .
Tancredo 1 25 Jun 14:45:48 14:48:35 32° 206° (SSW) 14:51:21 437.200
SPROUT 25 Jun 14:47:06 14:51:20 55° 290° (WNW) 14:55:32 437.525
ISS 25 Jun 14:58:52 15:02:03 44° 202° (SSW) 15:05:12 437.550
UKube-1 25 Jun 15:01:29 15:05:42 49° 100° (E) 15:09:54 .
50 SAT 25 Jun 15:05:56 15:09:19 62° 287° (WNW) 15:12:41 437.505
SO-50 25 Jun 15:14:15 15:17:59 26° 118° (ESE) 15:21:43 436.795
ITAMSAT 1 25 Jun 15:19:54 15:24:49 44° 65° (ENE) 15:29:47 435.822/435.867
Gurwin Techsat 1B 25 Jun 15:34:01 15:38:40 30° 266° (W) 15:43:21 435.225
PCSat 25 Jun 15:52:46 15:57:27 28° 330° (NNW) 16:02:09 145.827
MOZHAYETS 4 25 Jun 15:53:32 15:56:10 15° 87° (E) 15:58:46
VELOX 1 25 Jun 15:59:38 16:02:33 17° 303° (WNW) 16:05:27 145.980
ITUPSAT 1 25 Jun 16:07:51 16:11:59 27° 94° (E) 16:16:03 437.325
BEESAT 25 Jun 16:18:00 16:22:22 34° 96° (E) 16:26:42 436.000
DX 1 25 Jun 16:19:59 16:23:35 26° 299° (WNW) 16:27:11 434.975-435.025
AO-7 25 Jun 16:36:13 16:44:24 60° 256° (WSW) 16:52:41 .
ISS 25 Jun 16:36:28 16:37:55 12° 221° (SW) 16:39:21 437.550
UKube-1 25 Jun 16:38:00 16:41:30 24° 299° (WNW) 16:44:59 .
DOVE 4 25 Jun 16:49:10 16:51:39 15° 55° (NE) 16:54:13 437.250
SO-50 25 Jun 16:53:38 16:58:09 62° 318° (NW) 17:02:39 436.795
ITAMSAT 1 25 Jun 16:59:43 17:04:25 34° 264° (W) 17:09:10 435.822/435.867
LilacSat-2 25 Jun 17:07:33 17:08:18 10° 55° (NE) 17:09:02 437.200
XW-2B 25 Jun 17:09:17 17:09:30 10° 54° (NE) 17:09:41 145.730 - 145.750
HO-68 25 Jun 17:16:09 17:20:01 16° 37° (NE) 17:23:53 435.675
XW-2C 25 Jun 17:22:48 17:24:47 14° 58° (ENE) 17:26:46 145.795 - 145.815
MOZHAYETS 4 25 Jun 17:29:19 17:33:57 83° 288° (WNW) 17:38:31
KKS-1 25 Jun 17:29:41 17:32:41 17° 90° (E) 17:35:41 437.445
KAITUO 1B 25 Jun 17:37:36 17:39:47 15° 59° (ENE) 17:41:58 145.475/437.950
PCSat 25 Jun 17:39:09 17:42:39 17° 355° (N) 17:46:08 145.827
ITUPSAT 1 25 Jun 17:45:24 17:50:01 47° 294° (WNW) 17:54:37 437.325
BEESAT 25 Jun 17:55:45 18:00:12 39° 295° (WNW) 18:04:37 436.000
CUTE-I 25 Jun 18:00:12 18:05:03 37° 62° (ENE) 18:09:56 437.470
STARS 25 Jun 18:00:34 18:03:19 16° 89° (E) 18:06:02 437.465
CUBESAT XI-V 25 Jun 18:09:17 18:13:50 55° 101° (E) 18:18:21 437.345
NUDT-PHONESAT 25 Jun 18:12:26 18:15:44 29° 66° (ENE) 18:19:03 437.300
DOVE 4 25 Jun 18:24:34 18:28:46 82° 259° (WSW) 18:33:08 437.250
XW-2F 25 Jun 18:26:31 18:30:13 50° 70° (ENE) 18:33:56 145.980 - 146.000
XW-2D 25 Jun 18:30:11 18:33:58 58° 72° (ENE) 18:37:45 145.860 - 145.880
AO-7 25 Jun 18:34:58 18:39:05 14° 279° (W) 18:43:15 .
SO-50 25 Jun 18:35:52 18:39:25 22° 340° (NNW) 18:42:59 436.795
LilacSat-2 25 Jun 18:38:01 18:41:52 73° 74° (ENE) 18:45:44 437.200
XW-2B 25 Jun 18:39:08 18:42:58 70° 73° (ENE) 18:46:48 145.730 - 145.750
XW-2C 25 Jun 18:54:36 18:58:27 80° 257° (WSW) 19:02:19 145.795 - 145.815
HO-68 25 Jun 18:59:20 19:06:08 48° 60° (ENE) 19:12:58 435.675
KKS-1 25 Jun 19:05:14 19:09:43 69° 289° (WNW) 19:14:10 437.445
SEEDS 25 Jun 19:06:24 19:09:28 20° 60° (ENE) 19:12:32 437.485
XW-2A 25 Jun 19:07:43 19:10:10 18° 63° (ENE) 19:12:37 145.665 - 145.685
MOZHAYETS 4 25 Jun 19:07:51 19:10:25 15° 306° (NW) 19:12:58
KAITUO 1B 25 Jun 19:09:34 19:13:20 69° 258° (WSW) 19:17:07 145.475/437.950
CUTE 1.7 + AOD 2 25 Jun 19:22:14 19:26:12 38° 67° (ENE) 19:30:08 437.475
PCSat 25 Jun 19:23:51 19:28:02 22° 21° (NNE) 19:32:14 145.827
AO-73 25 Jun 19:28:16 19:30:03 12° 52° (NE) 19:31:50 145.935
CUBEBUG 2 25 Jun 19:30:40 19:34:42 30° 63° (ENE) 19:38:48 437.445
STARS 25 Jun 19:35:43 19:40:10 75° 288° (WNW) 19:44:36 437.465
CUTE-I 25 Jun 19:40:00 19:45:03 43° 262° (W) 19:50:10 437.470
NUDT-PHONESAT 25 Jun 19:46:19 19:49:37 29° 265° (W) 19:52:57 437.300
CUBESAT XI-V 25 Jun 19:47:15 19:50:54 24° 300° (WNW) 19:54:32 437.345
Oscar 11 25 Jun 19:54:53 19:57:22 15° 56° (NE) 19:59:51 .
AAUSAT CUBESAT 2 25 Jun 19:57:29 20:01:04 29° 65° (ENE) 20:04:39 437.432
ZACube-1 25 Jun 20:00:55 20:04:30 23° 60° (ENE) 20:08:06 437.345
XW-2F 25 Jun 20:01:57 20:04:38 18° 269° (W) 20:07:18 145.980 - 146.000
UWE-3 25 Jun 20:04:36 20:08:51 37° 66° (ENE) 20:13:11 435.000/436.395/437.385
XW-2D 25 Jun 20:06:09 20:08:31 16° 271° (W) 20:10:54 145.860 - 145.880
DOVE 4 25 Jun 20:06:25 20:07:18 11° 277° (W) 20:08:12 437.250
STRAND 1 25 Jun 20:14:41 20:18:49 24° 91° (E) 20:22:54 437.568
LilacSat-2 25 Jun 20:14:47 20:16:37 13° 272° (W) 20:18:29 437.200
XW-2B 25 Jun 20:15:42 20:17:36 13° 272° (W) 20:19:32 145.730 - 145.750
SO-50 25 Jun 20:18:22 20:21:24 17° 5° (N) 20:24:26 436.795
XW-2A 25 Jun 20:39:21 20:42:39 42° 261° (W) 20:45:59 145.665 - 145.685
SEEDS 25 Jun 20:40:40 20:44:49 57° 259° (W) 20:48:58 437.485
KKS-1 25 Jun 20:43:35 20:45:29 13° 308° (NW) 20:47:23 437.445
HO-68 25 Jun 20:47:00 20:53:55 47° 261° (W) 21:00:51 435.675
RS-15 25 Jun 20:47:03 20:56:33 28° 101° (E) 21:06:07 29.354- 29.394
AO-85 25 Jun 20:52:01 20:53:20 11° 112° (ESE) 20:54:39 145.980
CUTE 1.7 + AOD 2 25 Jun 20:58:28 21:02:08 28° 266° (W) 21:05:48 437.475
AO-73 25 Jun 21:00:54 21:05:26 65° 72° (ENE) 21:09:59 145.935
CUBEBUG 2 25 Jun 21:06:43 21:11:09 44° 263° (W) 21:15:42 437.445
PCSat 25 Jun 21:07:11 21:12:34 57° 45° (NE) 21:17:56 145.827
STARS 25 Jun 21:13:41 21:15:47 13° 307° (NW) 21:17:53 437.465
DELFI C3 25 Jun 21:25:57 21:29:16 27° 64° (ENE) 21:32:36 145.870
Oscar 11 25 Jun 21:28:33 21:32:54 89° 255° (WSW) 21:37:17 .
AAUSAT CUBESAT 2 25 Jun 21:32:40 21:36:28 35° 264° (W) 21:40:16 437.432
ZACube-1 25 Jun 21:35:56 21:40:26 58° 260° (W) 21:45:00 437.345
UWE-3 25 Jun 21:41:09 21:45:20 34° 265° (W) 21:49:36 435.000/436.395/437.385
YUBILEINY 25 Jun 21:43:12 21:50:11 28° 78° (ENE) 21:57:12 435.215
O/OREOS (USA 219) 25 Jun 21:51:56 21:54:55 17° 101° (E) 21:57:54 437.305
STRAND 1 25 Jun 21:53:18 21:58:25 62° 291° (WNW) 22:03:29 437.568
BEESAT 2 25 Jun 21:57:30 21:58:51 11° 110° (ESE) 22:00:12 435.950
SO-50 25 Jun 21:59:10 22:03:11 30° 29° (NNE) 22:07:12 436.795
FO-29 25 Jun 22:06:29 22:12:32 24° 85° (E) 22:18:36 435.910
ESTCUBE 1 25 Jun 22:13:54 22:15:05 11° 51° (NE) 22:16:17 437.505/2401.250
UNISAT 6 25 Jun 22:23:04 22:25:20 13° 85° (E) 22:27:36 437.425
EO-88 25 Jun 22:26:12 22:29:53 75° 75° (ENE) 22:33:34 145.990 - 145.960
AO-85 25 Jun 22:29:03 22:33:03 78° 130° (SE) 22:37:00 145.980
NO-84 25 Jun 22:33:12 22:35:49 17° 130° (SE) 22:38:32 435.350 FM
BEESAT 3 25 Jun 22:33:13 22:37:07 55° 127° (SE) 22:41:05 437.485
AO-73 25 Jun 22:38:50 22:42:05 19° 271° (W) 22:45:22 145.935
LO-87 25 Jun 22:50:04 22:52:55 23° 64° (ENE) 22:55:48 145.935 - 145.965
PCSat 25 Jun 22:50:57 22:55:45 33° 246° (WSW) 23:00:32 145.827
M-CUBED/EXP-1 PRIME 25 Jun 22:53:18 22:56:16 23° 102° (ESE) 22:59:24 437.505
RS-15 25 Jun 22:54:59 23:07:13 79° 127° (SE) 23:19:35 29.354- 29.394
DELFI C3 25 Jun 23:00:21 23:03:57 34° 263° (W) 23:07:35 145.870
Oscar 11 25 Jun 23:07:54 23:09:43 12° 274° (W) 23:11:31 .
PRISM 25 Jun 23:10:00 23:13:38 30° 96° (E) 23:17:16 437.425
TIGRISAT 25 Jun 23:16:06 23:20:26 35° 95° (E) 23:24:39 435.000
O/OREOS (USA 219) 25 Jun 23:29:16 23:33:49 72° 301° (WNW) 23:38:21 437.305
BEESAT 2 25 Jun 23:31:52 23:35:52 75° 129° (SE) 23:39:57 435.950
STRAND 1 25 Jun 23:34:09 23:36:38 14° 311° (NW) 23:39:07 437.568
YUBILEINY 25 Jun 23:37:10 23:46:01 84° 281° (W) 23:54:56 435.215
SO-50 25 Jun 23:39:31 23:44:02 71° 231° (SW) 23:48:33 436.795
ESTCUBE 1 25 Jun 23:46:35 23:51:00 59° 70° (ENE) 23:55:26 437.505/2401.250
VELOX 1 25 Jun 23:49:38 23:52:54 21° 59° (ENE) 23:56:12 145.980
